This demonstration page uses our WeatherBlox Daily Observations layout. Learn more.

Left ArrowRight Arrow

39.92423, -83.80882

Hourly Observations for February 10, 2019

Temp ( °F °C ) Dew Point ( °F °C ) Humidity (%) Winds ( mph kmh ) Pressure ( in mb ) Visibility ( mi km ) Precip ( " mm )
12:56 am 00:56 Clear 18 -7.8 15 -9.4 88 88 E 8 13 30.66 1038 10 16.0934 N/A
1:56 am 01:56 Partly Cloudy 17 -8.3 14 -10 88 88 ENE 6 9 30.66 1038 10 16.0934 N/A
2:56 am 02:56 Mostly Clear 17 -8.3 14 -10 88 88 E 6 9 30.64 1038 10 16.0934 N/A
3:56 am 03:56 Clear 18 -7.8 14 -10 84 84 E 8 13 30.61 1037 10 16.0934 N/A
4:56 am 04:56 Clear 19 -7.2 14 -10 81 81 E 8 13 30.6 1036 10 16.0934 N/A
5:56 am 05:56 Clear 19 -7.2 14 -10 81 81 E 9 15 30.58 1036 10 16.0934 N/A
6:56 am 06:56 Clear 21 -6.1 15 -9.4 78 78 ESE 10 17 30.56 1035 10 16.0934 N/A
7:56 am 07:56 Sunny 22 -5.6 16 -8.9 78 78 E 12 19 30.54 1034 10 16.0934 N/A
8:56 am 08:56 Cloudy 23 -5 17 -8.3 78 78 ESE 8 13 30.53 1034 10 16.0934 N/A
9:56 am 09:56 Mostly Cloudy 25 -3.9 19 -7.2 78 78 SE 13 20 30.54 1034 10 16.0934 N/A
10:56 am 10:56 Partly Cloudy 26 -3.3 20 -6.7 78 78 SE 13 20 30.51 1033 10 16.0934 N/A
11:56 am 11:56 Cloudy 28 -2.2 21 -6.1 75 75 SE 8 13 30.48 1032 10 16.0934 N/A
12:36 pm 12:36 Cloudy with Light Snow 28 -2 25 -4 86 86 SSE 9 15 30.46 1032 2 3.21868 N/A
12:44 pm 12:44 Cloudy with Light Snow 28 -2 25 -4 86 86 SSE 10 17 30.45 1031 2.5 4.02335 N/A
12:56 pm 12:56 Cloudy with Light Snow 28 -2.2 25 -3.9 88 88 SSE 7 11 30.43 1031 2 3.21868 N/A
1:14 pm 13:14 Cloudy with Light Snow 27 -3 27 -3 100 100 SE 6 9 30.44 1031 1 1.60934 N/A
1:23 pm 13:23 Cloudy with Light Snow 27 -3 27 -3 100 100 SE 6 9 30.43 1030 0.75 1.207005 N/A
1:43 pm 13:43 Cloudy with Light Snow 28 -2 27 -3 93 93 ESE 6 9 30.41 1030 0.75 1.207005 N/A
1:48 pm 13:48 Cloudy with Light Snow 28 -2 27 -3 93 93 ESE 6 9 30.41 1030 1.25 2.011675 N/A
1:56 pm 13:56 Cloudy with Light Snow 28 -2.2 27 -2.8 96 96 ESE 7 11 30.39 1029 1 1.60934 N/A
2:21 pm 14:21 Cloudy with Light Snow 28 -2 27 -3 93 93 ESE 7 11 30.39 1029 1.25 2.011675 N/A
2:56 pm 14:56 Cloudy with Light Snow 29 -1.7 28 -2.2 96 96 SE 9 15 30.36 1028 1.5 2.41401 0.02 0.508
3:04 pm 15:04 Cloudy with Light Snow 28 -2 28 -2 100 100 ESE 9 15 30.36 1028 1.5 2.41401 N/A
3:10 pm 15:10 Cloudy with Light Snow 28 -2 28 -2 100 100 ESE 9 15 30.36 1028 3 4.82802 N/A
3:56 pm 15:56 Cloudy with Light Snow 29 -1.7 29 -1.7 100 100 ESE 9 15 30.33 1027 8 12.87472 0.03 0.762
4:39 pm 16:39 Cloudy with Light Snow 28 -2 28 -2 100 100 SE 10 17 30.32 1027 4 6.43736 0.01 0.254
4:56 pm 16:56 Cloudy with Light Snow 29 -1.7 29 -1.7 100 100 SE 9 15 30.31 1027 5 8.0467 0.01 0.254
5:56 pm 17:56 Cloudy with Light Snow 30 -1.1 30 -1.1 100 100 SE 8 13 30.3 1026 2.5 4.02335 0.01 0.254
6:12 pm 18:12 Cloudy with Light Snow 30 -1 30 -1 100 100 SE 7 11 30.31 1026 1.25 2.011675 0.01 0.254
6:23 pm 18:23 Cloudy with Light Snow 30 -1 30 -1 100 100 SE 7 11 30.3 1026 2 3.21868 0.01 0.254
6:48 pm 18:48 Cloudy with Light Snow 30 -1 30 -1 100 100 SE 6 9 30.29 1026 3 4.82802 0.02 0.508
6:56 pm 18:56 Cloudy with Light Snow 30 -1.1 30 -1.1 100 100 ESE 7 11 30.28 1025 3 4.82802 0.03 0.762
7:06 pm 19:06 Cloudy with Light Freezing Rain 30 -1 30 -1 100 100 ESE 6 9 30.29 1026 4 6.43736 N/A
7:52 pm 19:52 Cloudy with Light Wintry Mix 30 -1 30 -1 100 100 SE 7 11 30.28 1025 4 6.43736 0.02 0.508
7:56 pm 19:56 Cloudy with Light Wintry Mix 31 -0.6 31 -0.6 100 100 SE 7 11 30.27 1025 4 6.43736 0.02 0.508
8:27 pm 20:27 Cloudy with Light Wintry Mix 32 undefined 32 undefined 100 100 SSE 7 11 30.27 1025 2 3.21868 0.02 0.508
8:56 pm 20:56 Cloudy with Light Wintry Mix 32 undefined 32 undefined 100 100 SSE 7 11 30.25 1024 2.5 4.02335 0.04 1.016
9:54 pm 21:54 Cloudy with Light Wintry Mix 34 1 34 1 100 100 S 8 13 30.25 1024 1.75 2.816345 0.02 0.508
9:56 pm 21:56 Cloudy with Light Wintry Mix 33 0.6 33 0.6 100 100 S 7 11 30.24 1024 2 3.21868 0.02 0.508
10:56 pm 22:56 Cloudy with Light Wintry Mix 33 0.6 33 0.6 100 100 S 8 13 30.23 1024 2 3.21868 0.03 0.762
11:16 pm 23:16 Cloudy with Light Wintry Mix 34 1 34 1 100 100 S 6 9 30.24 1024 1.75 2.816345 N/A
11:56 pm 23:56 Cloudy with Light Wintry Mix 33 0.6 33 0.6 100 100 S 7 11 30.21 1023 1.5 2.41401 N/A

Powered by AerisWeather